Upstream stations:
Downstream station:
SHEF ID: SEIO2 North Canadian River near Seilin
STATION TYPE:
Regulating: Stage = 11.00, Flow = 1140
PRECIP STAGE RIV-FLOW BAT-LOAD
in ft cfs volt
Ccp-Rev Ccp-Rev Ccp-Rev Ccp-Rev
(US/Central)
02/28 00:00 0.00 4.97 78 12.71
02/28 01:00 0.00 4.98 79 12.71
02/28 02:00 0.00 5.01 81 12.65
02/28 03:00 0.00 5.03 83 12.65
02/28 04:00 0.00 5.05 85 12.65
02/28 05:00 0.00 5.06 86 12.60
02/28 06:00 0.00 5.05 85 12.60
02/28 07:00 0.00 5.05 85 12.60
02/28 08:00 0.00 5.04 84 13.12
02/28 09:00 0.00 5.03 83 13.65
02/28 10:00 0.00 5.03 83 13.71
02/28 11:00 0.00 5.03 83 13.77
02/28 12:00 0.00 5.03 83 13.77
02/28 13:00 0.00 5.03 83 13.77
02/28 14:00 0.00 5.02 82 13.30
02/28 15:00 0.00 5.01 81 13.18
02/28 16:00 0.00 5.00 80 13.12
02/28 17:00 0.00 5.00 80 13.12
02/28 18:00 0.00 4.99 80 13.07
02/28 19:00 0.00 4.98 79 12.95
02/28 20:00 0.00 4.97 78 12.89
02/28 21:00 0.00 4.98 79 12.83
02/28 22:00 0.00 4.98 79 12.77
02/28 23:00 0.00 4.98 79 12.77